CDT,Max TemperatureF,Mean TemperatureF,Min TemperatureF,Max Dew PointF,MeanDew PointF,Min DewpointF,Max Humidity, Mean Humidity, Min Humidity, Max Sea Level PressureIn, Mean Sea Level PressureIn, Min Sea Level PressureIn, Max VisibilityMiles, Mean VisibilityMiles, Min VisibilityMiles, Max Wind SpeedMPH, Mean Wind SpeedMPH, Max Gust SpeedMPH,PrecipitationIn, CloudCover, Events, WindDirDegrees
2011-10-1,75,58,41,37,35,32,76,48,21,30.28,30.22,30.17,10,9,3,14,6,20,0.00,0,,164
2011-10-2,80,62,44,41,37,36,71,47,20,30.21,30.16,30.09,10,10,10,14,7,20,0.00,0,,170
2011-10-3,82,64,46,45,41,37,71,48,23,30.13,30.10,30.05,10,10,10,15,8,23,0.00,0,,146
2011-10-4,89,71,53,45,42,37,67,42,16,30.09,30.05,29.99,10,10,10,18,10,25,0.00,0,,168
2011-10-5,82,68,53,43,40,36,67,38,19,30.05,29.98,29.90,10,10,10,21,12,32,0.00,0,,168
2011-10-6,80,68,55,54,46,41,82,47,32,29.92,29.84,29.74,10,10,4,31,15,45,0.13,2,Rain-Thunderstorm,156
2011-10-7,80,73,66,61,56,45,69,55,40,29.93,29.85,29.77,10,10,10,28,20,38,0.00,5,Thunderstorm,173
2011-10-8,71,66,60,61,58,54,100,78,53,30.06,29.98,29.89,10,10,10,17,9,28,0.09,7,Rain-Thunderstorm,113
2011-10-9,66,60,53,61,58,54,100,94,77,30.11,30.07,29.99,10,10,7,15,6,20,0.06,8,Rain,155
2011-10-10,69,60,50,54,49,45,100,78,40,30.06,30.00,29.92,10,9,2,14,6,16,0.01,4,Rain,191
2011-10-11,71,60,50,59,54,50,100,85,57,29.93,29.83,29.71,10,9,2,12,7,,0.23,4,Rain-Thunderstorm,194
2011-10-12,69,60,50,59,49,43,100,77,40,29.89,29.77,29.70,10,6,0,24,7,32,0.01,5,Fog-Thunderstorm,316
2011-10-13,71,58,44,41,35,30,76,48,22,29.95,29.89,29.82,10,10,10,16,9,23,0.00,0,,304
2011-10-14,62,52,42,36,32,27,66,48,27,30.08,30.02,29.92,10,10,10,17,9,24,0.00,1,,323
2011-10-15,77,56,35,43,36,32,87,55,25,30.08,29.95,29.76,10,10,10,22,8,30,0.00,0,,224
2011-10-16,62,53,44,45,37,30,76,57,32,30.13,30.01,29.73,10,10,10,13,8,21,0.00,0,,349
2011-10-17,50,44,39,43,38,34,87,75,58,30.12,30.05,30.00,10,10,10,16,4,21,0.00,7,Rain,9
2011-10-18,53,44,35,37,31,25,87,63,33,30.17,30.11,30.05,10,10,10,28,13,34,0.00,0,,330
2011-10-19,51,42,32,32,26,19,93,61,30,30.18,30.12,30.08,10,10,10,18,9,25,0.00,0,,347
2011-10-20,53,38,23,30,27,21,93,71,38,30.11,30.07,30.01,10,10,3,7,4,,0.00,0,,313
2011-10-21,73,52,32,36,33,28,93,55,23,30.08,30.06,30.03,10,10,2,9,6,,0.00,0,,263
2011-10-22,60,50,39,43,39,34,93,63,42,30.11,30.08,30.03,10,7,1,13,4,,0.00,5,Rain,83
2011-10-23,75,54,33,45,37,32,100,64,21,30.06,29.98,29.92,10,10,7,18,4,23,0.00,0,,269
2011-10-24,80,60,41,39,35,34,76,48,21,30.10,30.00,29.79,10,10,10,17,7,23,0.00,0,,201
2011-10-25,64,54,44,43,40,37,81,54,37,30.03,29.80,29.66,10,10,10,29,13,34,0.00,0,,304
2011-10-26,46,44,41,41,35,32,87,71,57,30.18,30.13,30.08,10,10,10,18,11,22,0.00,7,Rain,347
2011-10-27,53,40,28,32,26,19,93,63,26,30.18,30.14,30.09,10,10,10,10,7,17,0.00,0,,275
2011-10-28,57,42,28,32,26,23,87,58,29,30.25,30.18,30.13,10,10,10,14,8,20,0.00,1,,295
2011-10-29,66,49,32,34,29,23,80,53,28,30.15,29.94,29.77,10,10,10,18,8,23,0.00,0,,209
2011-10-30,60,48,35,32,25,14,81,45,17,30.10,30.04,29.87,10,10,10,28,15,32,0.00,0,,310
2011-10-31,71,50,28,32,26,21,80,46,21,30.09,29.98,29.86,10,10,10,18,7,24,0.00,0,,204